Regional Weather Roundup
Issued by NWS Green Bay, WI

Home | Current Version | Previous Version | Text Only | Print | Product List | Glossary On
Versions: 1 2 3 4 5 6 7 8 9 10 11 12 13 14 15 16 17 18 19 20 21 22 23 24 25 26 27 28 29 30 31 32 33 34 35 36 37 38 39 40 41 42 43 44 45 46 47 48 49 50
000
ASUS43 KGRB 210200
RWRGRB

NORTH-CENTRAL AND NORTHEAST WISCONSIN REGIONAL WEATHER ROUNDUP
NATIONAL WEATHER SERVICE GREEN BAY WI
900 PM CDT WED SEP 20 2017

WIZ005-009-010>012-018-019-210300-
NORTH CENTRAL WISCONSIN

CITY           SKY/WX    TMP DP  RH WIND       PRES   REMARKS
IRONWOOD       FOG       58  57  97 CALM      29.91R VSB 1/4
MANITOWISH WTR NOT AVBL
ARBOR VITAE    NOT AVBL
EAGLE RIVER    NOT AVBL
LAND O LAKES   CLOUDY    66  66 100 CALM      29.93R FOG
RHINELANDER    CLOUDY    66  66 100 CALM      29.91S FOG
PHILLIPS       CLEAR     57  57 100 CALM      29.90R
ANTIGO         NOT AVBL
TOMAHAWK       NOT AVBL
MERRILL        NOT AVBL
$$

WIZ013-073-210300-
NORTHEAST WISCONSIN

CITY           SKY/WX    TMP DP  RH WIND       PRES   REMARKS
IRON MOUNTAIN  CLOUDY    68  65  90 N7        29.85F FOG
MARINETTE      LGT RAIN  71  68  90 SW3       29.87R
$$

WIZ017-030-035>037-045-210300-
CENTRAL WISCONSIN

CITY           SKY/WX    TMP DP  RH WIND       PRES   REMARKS
MEDFORD        NOT AVBL
WAUSAU         CLOUDY    69  66  90 NW7       29.86S
MOSINEE        PTCLDY    70  66  88 N7        29.89R
MARSHFIELD     CLOUDY    69  63  81 N7        29.87S
WISC RAPIDS    CLOUDY    70  68  93 N7        29.88R
STEVENS POINT  NOT AVBL
WAUPACA        NOT AVBL
SHAWANO        CLOUDY    71  67  87 S3        29.87S
CLINTONVILLE   NOT AVBL
WAUTOMA        LGT RAIN  71  70  96 N3        29.85F
$$

WIZ038-039-048-051-210300-
FOX VALLEY

CITY           SKY/WX    TMP DP  RH WIND       PRES   REMARKS
NWS GREEN BAY  TSTM      73  73 100 SW5       29.89R FOG
APPLETON       TSTM      70  70 100 VRB7      29.88R
OSHKOSH        TSTM      70  68  93 NE10      29.91R
FOND DU LAC    TSTM      71  67  87 N24G35    29.88R
$$

WIZ022-050-052-210300-
EAST CENTRAL WISCONSIN

CITY           SKY/WX    TMP DP  RH WIND       PRES   REMARKS
EPHRAIM        LGT RAIN  69  65  86 W5        29.86R
WASHINGTON ISL NOT AVBL
STURGEON BAY   LGT RAIN  71  67  87 SW10      29.90
MANITOWOC      LGT RAIN  72  68  87 VRB5G18   29.89R
SHEBOYGAN      CLOUDY    72  69  90 E3        29.84R
$$

LMZ563-521-522-541>543-210300-
LAKESHORE

STATION/POSITION TIME  TEMP    WIND        PRES    VSBY  WAVE
                       AIR SEA DIR/SP/G                  HT/PER
                 (UTC) (F)     (DEG/KT/KT) (MB)    (MI)  (FT/S)
SHEBOYGAN LKSHOR 0100   70     170/ 12/ 12 1009.7S
KEWAUNEE LKSHORE 0130   64     200/  2/  3 1010.2R
NORTHPORT PIER   0140   67     140/  6/ 10 1009.8F
N MID LAKE BUOY  0050   67 65  110/  6/  8 1012.0F         2/ 5
S GREEN BAY BUOY 0130   68 66   30/  4/  4 1010.0S
SISTER BAY LKSHO 0119   69     160/ 13/ 17   N/A
MENOMINEE LKSHOR 0130   71     170/  6/  7 1009.9F
$$




USA.gov is the U.S. government's official web portal to all federal, state and local government web resources and services.